Location: Burland Observatory
(39.4088°N, 105.4217°W)
Time: 05:15:46
(UTC-07:00)

S-56A Canister/Altair - Pass Details

Date: 13 December 2019
Orbit: 634 x 2498 km, 38.9° (Epoch: 22 January)

Event Time Altitude Azimuth Distance (km) Brightness Sun altitude
Rises 17:30:37 0° 281° (W) 5,919 13.1 -9.9°
Reaches altitude 10° 17:38:30 10° 255° (WSW) 4,513 13.0 -11.3°
Maximum altitude 17:41:59 12° 238° (WSW) 4,154 12.6 -11.9°
Drops below altitude 10° 17:45:11 10° 221° (SW) 4,056 12.2 -12.5°
Sets 17:51:10 0° 191° (S) 4,552 11.9 -13.6°
